Weather History for Fort Smith, AR

Change the Weather History Date:

Wednesday, June 26, 2013

  Actual Average Record
Temperature  
Mean Temperature 86 °F 80 °F  
Max Temperature 96 °F 91 °F 104 °F (2012)
Min Temperature 75 °F 70 °F 51 °F (1974)
Cooling Degree Days 21 15  
Month to date cooling degree days 376 323  
Year to date cooling degree days 650 567  
Since 1 June cooling degree days 376 323  
Growing Degree Days 36 (Base 50)    
Moisture  
Dew Point 72 °F    
Average Humidity 67    
Maximum Humidity 87    
Minimum Humidity 46    
Precipitation  
Precipitation 0.00 in 0.13 in 2.87 in (1977)
Month to date precipitation 6.10 3.76  
Year to date precipitation 27.08 22.95  
Sea Level Pressure  
Sea Level Pressure 29.87 in    
Wind  
Wind Speed 7 mph (SSW)    
Max Wind Speed 16 mph    
Max Gust Speed 21 mph    
Visibility 10 miles    
Events      
T = Trace of Precipitation, MM = Missing Value Source: NWS Daily Summary

Daily Weather History Graph

Daily Weather History Graph

Search for Another Location

Airport:

Trip Planner

Search our weather history database for the weather conditions in past years. The results will help you decide how hot, cold, wet, or windy it might be!

Date:

Astronomy

Jun. 26, 2013 Rise Set
Actual Time 6:04 AM CDT 8:36 PM CDT
Civil Twilight 5:34 AM CDT 9:06 PM CDT
Nautical Twilight 4:57 AM CDT 9:43 PM CDT
Astronomical Twilight 4:16 AM CDT 10:24 PM CDT
Moon 11:09 PM CDT (6/26) 9:48 AM CDT (6/26)
Length of Visible Light 15h 31m
Length of Day
14h 31m
Waning Gibbous, 85% of the Moon is Illuminated
Jun 26
Waning Gibbous
Jun 29
Last Quarter
Jul 8
New
Jul 15
First Quarter
Jul 22
Full

Hourly Weather History & Observations

Time (CDT) Temp. Heat Index Dew Point Humidity Pressure Visibility Wind Dir Wind Speed Gust Speed Precip Events Conditions
12:53 AM 78.1 °F - 71.1 °F 79% 29.86 in 10.0 mi East 3.5 mph - N/A   Clear
1:53 AM 78.1 °F - 71.1 °F 79% 29.85 in 10.0 mi ESE 3.5 mph - N/A   Clear
2:53 AM 78.1 °F - 71.1 °F 79% 29.84 in 10.0 mi Calm Calm - N/A   Clear
3:53 AM 77.0 °F - 72.0 °F 84% 29.83 in 10.0 mi NE 3.5 mph - N/A   Clear
4:53 AM 75.9 °F - 72.0 °F 87% 29.84 in 10.0 mi Calm Calm - N/A   Clear
5:53 AM 75.9 °F - 72.0 °F 87% 29.86 in 10.0 mi NE 3.5 mph - N/A   Clear
6:53 AM 78.1 °F - 73.9 °F 87% 29.88 in 10.0 mi Calm Calm - N/A   Clear
7:53 AM 82.9 °F 88.0 °F 72.0 °F 69% 29.90 in 10.0 mi SSW 6.9 mph - N/A   Clear
8:53 AM 84.9 °F 90.1 °F 71.1 °F 63% 29.90 in 10.0 mi SSW 11.5 mph - N/A   Clear
9:53 AM 84.9 °F 89.4 °F 70.0 °F 61% 29.91 in 10.0 mi SSW 11.5 mph - N/A   Clear
10:53 AM 88.0 °F 94.7 °F 72.0 °F 59% 29.91 in 10.0 mi SW 11.5 mph - N/A   Clear
11:53 AM 91.0 °F 98.2 °F 72.0 °F 53% 29.90 in 10.0 mi SSW 10.4 mph 20.7 mph N/A   Clear
12:53 PM 93.0 °F 100.1 °F 71.1 °F 49% 29.89 in 10.0 mi SW 12.7 mph 19.6 mph N/A   Clear
1:53 PM 93.9 °F 100.8 °F 71.1 °F 47% 29.88 in 10.0 mi WSW 12.7 mph 17.3 mph N/A   Clear
2:53 PM 95.0 °F 103.2 °F 72.0 °F 47% 29.87 in 10.0 mi SSW 15.0 mph - N/A   Clear
3:53 PM 95.0 °F 103.2 °F 72.0 °F 47% 29.86 in 10.0 mi SSW 9.2 mph - N/A   Clear
4:53 PM 95.0 °F 103.2 °F 72.0 °F 47% 29.85 in 10.0 mi SSW 8.1 mph - N/A   Clear
5:53 PM 95.0 °F 103.2 °F 72.0 °F 47% 29.84 in 10.0 mi SW 11.5 mph - N/A   Clear
6:53 PM 93.9 °F 102.1 °F 72.0 °F 49% 29.83 in 10.0 mi WSW 10.4 mph - N/A   Clear
7:53 PM 91.9 °F 100.7 °F 73.0 °F 54% 29.85 in 10.0 mi WSW 4.6 mph - N/A   Clear
8:53 PM 89.1 °F 97.0 °F 73.0 °F 59% 29.87 in 10.0 mi WSW 4.6 mph - N/A   Clear
9:53 PM 87.1 °F 95.4 °F 73.9 °F 65% 29.88 in 10.0 mi SSW 5.8 mph - N/A   Clear
10:53 PM 82.9 °F 89.4 °F 73.9 °F 74% 29.89 in 10.0 mi SW 6.9 mph - N/A   Clear
11:53 PM 84.9 °F 91.4 °F 73.0 °F 67% 29.89 in 10.0 mi SW 8.1 mph - N/A   Clear